Theta_e
294 294 295 296 298 299 300 301 302 303 302 303 303 304 304 303 300 292 289 292 287 282 284 284 285 284 284 285 281 279 281 280 280 279 279 277 276 274 273 274 272 273 273 271 272 270 269 276 276 274 276 276 277 276
294 294 294 295 297 298 299 300 301 301 302 302 303 303 302 303 302 296 286 291 290 283 282 286 287 287 286 289 284 281 283 280 282 280 277 276 273 272 272 269 273 272 276 272 275 274 276 278 278 279 279 277 277 277
293 293 294 294 296 297 299 300 300 301 302 302 302 303 303 303 303 298 290 288 287 278 280 280 281 287 289 288 288 281 279 283 282 282 277 276 273 274 268 269 270 273 274 273 273 274 275 277 279 278 279 279 279 279
293 293 293 294 294 296 297 299 299 300 301 301 302 302 302 302 303 299 291 291 287 281 272 277 283 283 287 288 286 286 284 283 282 281 276 273 271 277 271 274 273 274 274 271 271 274 275 277 278 279 279 279 278 277
292 293 293 293 294 296 297 298 298 299 300 301 301 301 301 302 302 299 295 293 291 283 274 273 277 282 285 285 283 283 283 281 279 276 273 271 275 274 272 274 270 275 273 271 270 277 277 277 279 279 278 278 278 277
292 293 293 293 294 295 296 297 298 298 299 300 300 301 301 301 302 296 286 293 294 292 282 273 279 276 281 282 281 281 280 280 278 276 274 275 278 276 267 266 276 277 277 278 276 279 279 280 279 278 278 278 278 276
291 292 292 293 294 294 296 297 297 298 298 299 300 300 300 300 297 287 285 288 297 293 284 276 273 276 281 279 277 279 280 278 278 275 271 276 276 277 267 267 277 278 278 278 279 278 277 278 278 278 278 278 276 274
291 291 292 293 294 294 294 296 297 297 298 298 299 300 299 297 297 290 291 296 296 288 284 278 271 276 281 278 277 279 277 276 276 276 276 274 277 275 268 276 278 279 278 278 278 279 281 277 276 276 274 272 271 272
290 291 293 293 293 294 294 295 297 297 298 298 298 299 293 287 284 286 295 297 293 287 279 278 270 269 280 280 280 280 282 275 278 272 275 276 272 271 275 277 277 278 276 278 275 275 275 275 277 273 271 268 270 272
290 291 292 294 293 294 294 295 297 297 298 297 291 284 281 285 294 295 288 283 283 282 282 276 266 269 279 277 276 273 274 273 272 275 278 276 271 278 278 277 278 279 278 275 270 269 264 267 272 272 272 272 273 271
290 290 292 293 292 291 294 295 297 297 297 286 283 280 284 293 284 281 278 277 278 276 280 274 269 270 275 272 271 277 274 275 270 269 272 270 263 278 280 277 280 279 277 275 277 277 273 272 272 272 270 269 265 264
290 293 292 293 293 292 296 296 296 288 286 286 286 288 287 281 274 273 274 274 272 272 270 270 271 271 269 274 273 276 272 272 266 268 270 261 270 276 273 278 280 279 273 273 271 274 268 269 265 266 264 262 259 259
292 292 292 293 293 294 296 296 294 293 290 286 282 280 277 277 272 270 268 265 267 263 268 265 270 272 273 275 273 273 269 269 271 269 267 267 270 267 265 265 268 261 262 263 261 262 262 259 258 257 257 256 255 253
290 291 291 291 291 293 295 295 293 290 284 277 276 271 271 270 269 266 265 261 265 265 271 267 272 270 269 270 272 266 267 265 263 260 261 265 259 257 259 259 257 258 257 260 257 258 257 256 254 253 253 253 253 252
289 289 290 290 290 291 291 291 292 287 277 272 273 269 268 263 260 255 255 258 261 261 271 268 267 274 268 271 273 269 266 262 262 261 259 255 255 255 255 254 254 254 254 253 252 254 254 253 252 249 248 248 250 250
285 285 284 288 288 289 290 288 286 284 277 273 272 265 260 261 259 259 258 266 267 270 267 269 266 269 268 270 269 267 265 263 262 253 251 254 253 253 250 250 250 249 249 249 251 252 253 252 251 248 245 247 248 250
283 275 284 285 285 284 284 276 274 272 269 270 264 255 255 256 260 259 260 266 271 272 272 273 270 268 272 269 266 265 260 255 254 255 255 253 252 252 251 249 248 248 249 248 249 250 248 248 249 249 249 246 249 248
274 277 283 284 276 273 263 266 269 268 264 262 260 256 255 254 256 256 262 266 268 270 271 271 272 269 266 266 263 258 258 258 258 256 255 252 253 251 248 246 247 249 249 248 246 247 249 248 252 251 252 251 251 249
273 277 282 282 275 261 261 260 263 262 256 256 260 261 259 255 257 260 261 264 267 269 272 271 268 262 257 254 253 254 252 252 253 255 254 252 252 250 248 249 248 249 249 250 252 252 252 253 253 252 252 252 252 251
281 280 279 278 273 260 256 256 256 259 255 257 258 259 259 260 260 260 260 261 261 258 251 252 249 249 250 251 252 251 252 253 252 253 254 254 253 252 252 251 251 249 249 248 249 250 249 249 249 251 251 252 251 251
273 275 274 266 263 259 256 255 254 253 253 256 257 259 259 259 256 257 256 257 253 249 249 248 248 249 250 251 252 251 252 252 251 251 252 253 254 253 251 250 249 248 248 250 251 251 253 252 251 249 250 246 244 244
268 273 260 267 263 260 256 257 254 254 253 251 255 255 254 254 254 253 256 250 249 248 248 248 249 249 249 249 250 250 250 250 252 254 255 254 253 253 252 252 252 250 251 251 251 251 251 249 245 242 242 242 243 243
267 266 261 259 257 255 252 258 254 255 252 253 252 253 252 252 254 257 249 249 249 251 249 248 248 248 247 248 249 249 248 249 249 250 250 251 252 253 253 252 253 252 252 251 249 249 249 248 245 244 243 243 243 243
262 254 253 252 253 250 254 255 257 257 255 254 255 253 250 251 254 251 247 247 249 250 249 248 248 248 248 248 248 247 248 247 250 250 250 251 251 250 250 250 250 250 249 248 247 244 243 243 245 244 244 243 242 243
254 247 249 247 251 250 250 250 251 252 250 251 251 250 250 250 248 246 246 244 247 248 248 248 248 248 246 247 250 249 249 249 251 251 250 251 251 251 252 251 249 248 246 247 247 245 243 241 242 243 244 243 244 245
244 245 245 244 246 246 247 248 247 248 250 248 247 249 251 250 246 243 243 245 246 247 248 247 246 246 248 248 248 250 250 249 250 252 251 250 250 250 246 247 246 249 245 243 244 243 242 243 243 244 245 246 250 248
243 242 245 249 247 247 249 249 249 247 245 244 244 248 248 244 243 244 247 249 249 249 250 250 248 247 247 248 251 252 252 251 249 249 248 248 247 246 248 247 247 248 245 243 242 244 246 246 247 247 248 249 250 251
243 242 242 244 245 245 244 244 242 241 242 243 245 243 243 243 241 246 249 251 251 251 251 250 249 249 249 251 252 253 253 253 251 251 251 251 250 251 250 250 251 257 249 248 249 249 248 247 246 247 247 249 249 248
243 243 243 244 244 243 240 241 241 242 242 241 245 245 244 247 247 247 250 251 252 252 251 251 252 253 253 253 253 253 252 252 250 248 247 248 249 250 253 252 252 251 249 249 254 257 256 255 253 253 252 251 251 249
243 242 244 243 241 240 240 239 241 241 242 243 244 249 249 250 251 253 253 252 251 250 251 251 251 251 250 250 250 250 250 250 250 248 244 246 248 251 252 251 251 251 249 248 251 250 253 251 251 248 249 248 247 247
242 242 243 243 242 241 241 241 241 243 245 247 248 247 245 247 250 252 251 251 251 251 250 249 250 250 249 248 248 247 247 249 251 249 249 250 251 251 252 252 253 250 246 245 245 244 244 244 242 241 241 242 243 244
242 239 240 241 241 242 242 243 242 244 245 246 245 245 246 246 246 248 251 250 249 248 249 249 247 247 249 248 245 244 249 248 248 248 248 249 250 251 252 253 251 247 246 247 245 244 243 242 243 243 243 243 243 243
243 244 244 244 243 243 243 243 244 244 245 245 245 245 246 246 245 248 251 251 249 248 247 247 248 248 247 244 245 243 244 243 245 251 251 252 252 252 251 250 247 244 244 244 244 244 243 243 243 243 242 242 242 242
Wind_Speed
25 24 26 24 25 24 24 22 23 18 18 18 16 18 21 19 18 5 2 3 4 2 2 4 4 4 3 4 5 5 3 1 1 3 4 4 3 5 2 2 7 9 9 5 2 3 10 7 4 9 6 2 6 6
25 25 25 26 24 24 25 22 23 21 18 19 18 17 17 20 21 9 3 1 3 3 3 1 2 3 1 3 7 6 2 5 4 2 1 4 3 2 3 4 1 3 7 9 12 8 0 14 4 6 5 6 6 6
25 26 24 26 25 23 24 23 20 20 20 19 20 19 20 21 21 14 4 4 4 3 3 2 5 4 2 4 4 7 1 3 4 2 4 3 3 4 5 6 2 4 3 3 3 4 5 9 5 3 6 8 6 6
24 26 25 25 27 24 23 23 20 19 19 19 18 18 17 19 22 14 5 5 5 3 3 5 2 3 2 6 4 3 6 5 6 2 3 3 3 3 4 2 4 5 7 6 1 1 2 7 7 6 9 7 5 5
23 25 28 29 27 25 23 24 22 21 19 18 18 18 16 17 18 10 5 6 7 6 4 4 2 4 1 6 8 7 9 7 3 2 3 3 2 4 1 3 5 6 8 6 6 9 7 6 10 12 8 8 9 8
20 19 20 22 23 20 24 23 22 19 18 18 20 20 20 17 17 5 2 6 9 5 3 0 2 4 3 4 8 7 5 3 3 5 3 2 0 3 4 5 7 6 7 6 5 7 8 7 5 7 9 10 8 7
16 16 15 18 22 17 22 22 22 21 19 16 18 19 18 20 9 4 4 5 19 7 4 2 3 3 2 4 2 2 1 2 3 3 2 4 3 5 3 8 5 7 8 5 7 7 3 5 8 9 8 8 6 4
16 19 24 22 23 20 18 21 22 21 19 15 16 17 14 5 7 7 2 8 14 4 3 4 1 1 1 3 3 1 3 2 2 3 2 3 2 2 5 12 2 8 7 8 13 11 14 3 4 5 5 4 4 6
20 22 25 24 25 22 20 25 23 24 22 14 7 17 6 3 2 2 11 11 3 3 5 4 7 5 3 2 3 2 2 2 1 3 4 5 4 8 14 13 7 11 11 14 4 10 8 9 12 5 6 4 5 8
22 24 24 21 24 19 23 25 29 24 23 22 8 2 3 4 14 16 4 2 2 3 2 3 2 4 4 2 2 3 2 4 5 5 5 5 5 19 7 9 11 14 11 6 5 5 1 6 10 8 10 7 10 5
24 29 20 18 16 12 20 29 24 24 23 3 3 3 2 12 4 2 3 3 2 4 2 3 4 6 2 4 4 2 3 3 4 5 7 4 5 21 13 12 15 11 10 13 12 9 9 8 8 9 8 7 4 5
26 3 7 13 16 15 30 25 21 6 3 7 9 5 3 3 3 4 3 1 2 5 3 5 4 4 2 3 4 4 4 2 5 3 4 3 11 8 6 15 16 13 5 8 9 10 6 4 2 4 4 6 5 6
22 23 20 19 23 14 26 27 21 25 15 3 4 4 4 2 4 7 6 2 2 3 4 2 3 4 2 1 3 3 5 5 4 4 5 8 5 2 6 5 6 5 4 4 4 6 7 6 5 4 7 5 8 8
20 23 25 21 22 19 22 26 25 12 5 3 4 5 4 3 4 5 6 5 4 3 7 4 4 4 2 3 4 5 4 5 2 3 9 4 6 9 9 6 5 5 1 5 6 6 8 8 7 7 7 5 8 7
22 24 23 21 21 20 17 15 15 5 4 3 3 4 3 2 2 1 2 3 2 2 5 4 3 3 1 3 3 4 4 5 7 8 4 3 8 8 9 8 9 7 2 5 3 6 8 7 8 7 5 4 6 7
11 15 13 18 19 18 14 10 6 3 4 3 3 3 1 4 4 3 1 2 3 3 2 3 4 4 4 4 5 6 7 7 3 2 3 6 7 7 6 7 5 4 4 4 5 5 8 6 7 7 4 5 4 6
16 5 11 13 13 13 19 5 4 5 4 4 2 3 2 3 3 1 1 1 3 2 3 2 6 7 3 3 4 3 3 2 2 1 2 3 6 7 6 6 6 5 6 6 5 6 5 5 8 5 7 2 4 5
5 3 13 12 7 7 5 6 4 4 6 3 2 2 2 1 1 2 2 3 2 1 2 3 2 1 2 2 3 3 3 4 1 2 2 3 4 4 4 4 4 5 6 7 5 4 5 4 5 5 7 5 5 3
5 9 15 13 8 6 5 6 4 5 2 1 2 2 3 1 0 2 3 4 2 2 3 2 4 3 3 4 3 3 3 3 4 6 2 4 4 4 4 3 4 4 3 3 4 5 4 5 4 3 3 2 3 2
17 18 14 17 10 5 6 4 3 5 3 1 2 3 2 2 1 2 7 7 5 5 10 8 4 3 3 3 3 3 4 5 4 3 1 2 3 4 5 4 3 3 3 4 5 5 4 4 2 3 2 2 2 2
8 7 12 7 4 7 5 3 5 2 1 4 2 2 2 2 4 5 6 6 7 7 5 3 1 2 4 4 1 2 4 4 3 2 2 3 3 3 3 3 3 3 2 2 3 3 3 3 2 2 1 1 0 1
2 10 4 6 5 4 5 3 4 1 4 1 3 3 4 3 4 4 3 9 6 3 3 3 3 3 4 3 4 3 4 5 4 3 2 2 1 1 2 2 2 1 2 2 2 2 2 1 1 1 1 0 1 1
7 6 5 7 6 7 2 2 4 4 5 1 2 4 4 3 3 2 7 5 3 3 2 2 5 6 4 4 4 4 3 5 3 4 3 2 2 3 2 2 2 1 1 1 2 2 1 0 1 1 0 1 1 2
11 9 8 6 7 2 2 4 3 3 3 4 3 4 3 3 3 5 6 3 2 3 5 7 5 4 2 3 3 3 5 3 2 2 4 2 2 3 2 2 2 1 1 1 2 1 1 0 1 1 1 1 1 1
9 11 7 8 5 5 6 4 5 4 4 4 3 3 3 2 5 5 4 3 4 4 5 6 5 4 3 3 2 2 3 4 3 3 3 4 1 0 1 1 2 2 0 2 2 1 1 1 1 1 2 2 2 4
12 7 7 6 5 5 4 4 5 5 3 4 4 2 2 4 6 5 2 3 3 2 5 4 4 4 3 3 3 4 4 3 3 2 3 3 4 3 2 3 3 3 1 1 1 1 3 3 2 3 3 4 5 4
8 6 4 2 2 3 3 3 4 6 6 6 4 5 4 7 5 2 2 1 3 3 4 3 1 2 3 4 4 3 3 1 1 1 1 1 1 1 1 1 3 4 2 2 3 3 3 3 3 4 4 3 4 4
4 5 6 7 4 5 4 5 6 6 4 4 1 7 5 4 1 3 2 5 5 5 4 1 1 1 2 3 5 6 5 4 3 2 2 1 0 1 1 2 3 6 3 3 3 3 3 4 4 4 4 5 4 3
5 6 3 5 4 7 7 6 4 3 3 2 3 4 4 3 1 2 3 4 4 3 6 6 7 5 5 4 5 6 7 8 8 8 7 4 4 3 6 5 4 4 2 3 9 8 6 6 5 5 5 4 3 2
5 4 3 5 7 6 3 2 3 3 2 2 1 10 8 5 6 5 5 6 7 7 5 5 5 6 7 8 7 7 2 3 4 4 2 4 5 7 7 6 6 5 3 3 5 6 8 5 6 4 4 3 3 4
4 3 4 6 5 2 2 3 3 2 2 4 4 6 4 2 3 8 8 6 4 4 5 6 6 6 7 8 8 8 7 2 6 5 4 6 6 6 7 7 6 4 3 3 3 3 3 3 3 4 5 6 7 6
4 5 3 4 1 2 2 3 2 3 3 3 3 1 1 3 3 2 7 6 5 7 8 7 8 8 8 5 2 2 5 6 7 7 8 7 7 7 7 6 5 2 3 4 4 4 4 5 5 6 6 9 8 8
2 4 4 3 2 2 4 3 1 2 2 2 2 1 1 2 3 2 2 6 4 4 5 6 7 8 8 4 6 3 3 4 9 12 14 14 14 12 8 5 2 3 4 4 5 5 8 9 8 8 8 8 9 9
Wind_Direction
274 277 269 271 278 266 259 256 247 239 240 234 232 220 203 190 173 128 147 167 122 141 244 200 179 146 118 151 147 143 109 319 117 172 150 170 159 204 126 134 176 157 162 190 115 198 267 144 66 174 206 18 144 164
275 272 269 259 270 269 263 257 244 239 233 230 226 205 229 204 184 154 117 173 103 115 203 276 274 256 48 175 125 178 139 156 164 113 117 106 138 164 144 220 358 230 190 179 192 201 65 184 147 181 157 145 190 184
265 269 264 261 263 263 264 252 246 238 234 229 223 221 217 206 198 174 130 140 83 79 322 46 221 224 160 210 158 130 238 177 181 135 143 131 175 137 165 233 115 259 171 198 123 182 192 203 232 199 187 206 190 206
272 269 263 263 253 258 258 247 245 245 233 230 225 215 214 219 210 166 145 155 99 114 137 268 313 216 212 160 147 107 127 86 99 112 121 135 162 191 188 159 183 195 135 155 283 19 70 276 234 217 213 213 195 191
276 271 262 255 249 252 249 244 235 243 239 225 221 217 215 218 206 168 153 183 157 146 188 270 323 276 295 154 140 118 127 120 133 102 109 180 138 122 346 50 253 179 177 164 203 195 170 200 204 216 210 217 224 217
282 279 275 247 244 249 254 238 237 233 233 220 216 213 207 204 189 151 181 189 181 118 131 159 284 33 60 123 133 141 133 96 101 138 177 183 201 105 128 201 233 179 164 173 204 180 198 215 224 161 197 217 222 207
286 291 280 263 242 235 252 235 228 223 226 210 218 214 200 203 195 168 181 181 173 133 154 195 291 339 46 98 52 111 55 127 122 133 141 132 188 135 116 229 118 166 186 190 219 121 234 180 230 185 195 212 196 204
293 304 293 262 251 236 243 247 226 218 211 200 211 197 162 156 171 186 152 149 151 121 163 186 174 134 214 128 135 182 103 54 358 147 76 128 97 100 245 248 218 225 197 221 230 199 227 126 219 210 168 140 188 227
305 302 292 253 243 223 238 238 221 210 195 182 147 162 116 110 155 189 145 123 79 147 179 152 146 188 187 116 123 150 131 132 193 186 178 130 168 214 226 222 194 216 190 225 186 197 214 213 239 215 177 181 208 243
312 307 291 252 226 224 237 221 204 195 189 162 118 167 131 163 150 145 111 140 166 148 150 117 57 151 159 101 125 116 163 183 184 212 134 200 228 244 210 195 209 228 220 147 131 256 187 250 225 224 209 208 208 218
313 300 264 237 184 221 230 195 187 179 175 68 108 99 174 164 76 73 155 200 117 143 164 119 166 129 290 140 161 218 170 162 170 226 172 181 258 245 220 209 228 226 219 208 215 230 183 184 189 212 225 219 162 142
315 277 212 241 196 204 192 162 144 121 148 121 109 97 107 81 73 130 166 99 125 187 194 136 180 157 180 137 110 159 158 135 218 138 136 212 248 251 174 215 233 232 200 214 197 226 171 159 126 135 120 128 115 110
18 46 45 14 187 184 161 145 121 115 92 77 67 132 121 135 168 167 154 283 178 185 195 154 121 122 97 139 112 145 158 198 111 184 213 228 268 327 5 337 304 1 356 51 60 73 96 98 63 78 113 97 106 102
58 49 44 47 68 88 128 128 119 112 85 91 142 126 155 166 189 171 175 185 242 132 147 120 121 140 164 113 137 138 190 94 158 190 228 245 9 330 338 336 333 337 78 110 107 106 105 104 90 70 81 102 120 121
58 55 50 43 43 44 60 92 79 48 80 85 83 164 178 212 42 72 126 77 287 169 126 82 48 107 166 153 174 113 158 202 198 221 234 319 327 333 340 347 342 340 25 90 93 101 104 106 99 86 45 53 90 104
49 50 33 48 44 35 54 58 42 46 51 86 76 100 3 54 328 11 17 126 199 150 80 69 133 139 202 173 169 190 164 206 252 349 289 323 335 339 334 329 342 0 24 30 55 90 106 100 109 110 87 60 78 111
59 30 25 37 35 37 29 56 53 57 53 41 40 32 62 67 141 159 351 3 321 128 150 171 180 203 119 168 182 40 178 268 269 301 351 341 324 338 340 342 3 38 59 50 43 52 70 102 116 102 95 42 72 60
58 320 38 32 38 38 26 23 69 65 70 22 65 321 42 85 326 357 341 352 342 78 98 162 97 79 24 130 71 24 24 343 17 353 355 320 332 4 31 9 8 39 66 71 78 80 75 59 74 73 110 122 112 102
105 55 35 38 50 82 66 14 17 95 81 20 76 59 76 115 213 303 315 332 321 335 62 45 77 42 57 37 12 9 10 351 329 320 336 3 13 5 357 13 41 42 64 78 85 78 66 47 83 107 110 130 99 82
68 47 42 39 44 62 53 3 29 78 94 58 25 51 61 48 359 13 26 12 32 33 38 38 45 33 1 358 350 318 306 320 301 304 110 56 23 39 29 28 39 39 52 52 76 84 75 71 34 57 60 91 125 128
37 14 23 52 51 57 85 15 47 92 110 72 342 11 61 40 31 27 26 357 57 34 55 31 15 315 315 294 319 288 311 336 321 300 327 312 18 55 59 36 27 1 27 353 81 73 80 91 96 86 104 107 90 148
15 28 47 18 72 54 71 13 110 164 68 163 51 29 35 41 35 27 19 47 53 26 359 326 316 311 320 330 324 297 297 309 298 306 306 309 311 42 75 77 55 44 31 46 50 97 96 100 136 134 90 308 315 267
28 32 49 18 73 43 323 323 65 10 76 26 37 59 31 45 40 95 72 62 84 24 316 293 292 285 263 294 319 344 342 353 13 7 1 17 10 35 68 49 36 107 109 96 75 105 123 241 194 115 206 78 40 359
32 45 29 40 24 42 335 37 28 59 52 40 53 79 40 28 350 62 74 61 349 328 355 348 339 345 359 4 12 345 345 307 329 32 359 356 64 37 15 38 30 33 30 99 89 103 75 214 252 124 85 73 336 262
69 8 14 11 12 21 33 23 12 46 63 25 78 56 16 350 69 56 63 339 338 347 355 353 357 3 11 314 324 348 16 2 3 45 12 351 347 349 41 43 29 7 99 51 21 19 321 326 321 267 243 219 262 288
67 0 38 353 5 32 353 46 29 17 25 62 39 325 8 66 63 55 30 305 305 315 349 349 344 341 359 355 319 347 340 345 317 45 29 4 16 33 38 28 352 345 48 164 118 343 310 278 259 270 284 285 276 279
50 351 349 72 332 304 39 42 32 48 51 27 352 7 40 63 60 7 319 16 319 315 309 307 271 281 297 318 322 316 299 284 274 177 294 352 23 139 87 41 338 276 284 223 214 216 254 283 285 276 265 266 236 235
61 31 17 338 34 8 47 45 35 26 2 347 294 36 69 52 68 311 325 330 324 312 308 339 171 249 315 343 2 5 6 20 77 91 73 70 46 8 350 315 288 324 319 289 258 248 230 241 246 256 255 265 274 257
32 345 299 27 45 49 43 25 19 1 335 305 53 69 83 62 288 295 300 317 315 22 44 35 26 23 27 15 24 25 28 27 36 34 17 343 340 329 350 335 323 312 305 318 323 331 294 260 251 248 259 267 273 288
357 355 15 49 48 39 347 335 336 324 291 297 299 103 93 81 44 30 36 31 34 34 30 38 30 28 27 18 4 2 352 42 48 49 324 320 311 311 316 314 313 303 296 310 321 324 330 2 332 342 333 313 306 299
322 330 61 43 69 354 315 308 267 255 339 40 45 82 88 124 78 41 27 14 8 19 26 25 22 22 11 3 354 342 339 323 12 347 311 295 304 308 309 310 301 292 310 318 312 311 299 309 302 305 306 301 296 290
6 36 81 80 15 310 329 16 12 60 3 38 14 50 47 67 71 53 7 11 23 29 21 16 1 342 332 321 295 288 338 328 331 324 321 322 314 309 308 316 315 348 336 310 304 297 290 281 285 280 281 282 278 278
34 22 38 68 48 37 11 357 50 83 33 45 28 24 53 96 103 123 71 29 31 29 4 344 334 322 318 329 315 297 307 294 310 324 322 321 324 322 312 297 350 326 311 304 294 289 289 287 287 284 284 282 283 284